Cloud_Cover
0 0 0 0 0 0 0 0 4 26 23 100 100 100 100 100 100 100 74 0 0 12 29 5 6 40 36 100 100 100 100 100 100 100 100 100 84 100 100 100 100 100 100
0 0 0 0 0 0 0 0 2 49 86 100 100 100 100 100 100 100 57 5 3 45 89 100 100 100 100 81 86 100 100 100 100 100 100 100 100 93 100 73 98 100 100
0 0 0 0 0 0 0 3 38 56 53 100 94 100 100 69 37 16 5 13 89 97 100 100 100 100 96 100 100 100 100 100 100 98 100 100 99 89 95 98 97 89 100
0 0 0 0 0 0 0 6 70 80 100 100 100 100 100 100 100 100 100 100 100 100 100 100 100 100 100 100 100 100 100 100 100 100 100 96 97 100 100 88 94 100 100
0 0 0 0 0 0 64 100 69 100 99 100 79 99 100 100 100 100 100 100 100 100 100 100 100 100 100 100 100 100 100 100 100 88 96 68 78 91 80 93 96 88 96
0 0 0 0 0 32 100 100 100 100 100 100 96 77 100 100 100 100 100 100 100 100 100 44 64 93 100 100 97 75 91 100 100 98 75 96 97 100 91 65 68 100 100
0 0 0 1 2 57 100 100 100 100 100 100 100 100 100 100 100 100 100 95 100 100 100 100 100 100 100 60 90 33 37 30 80 98 99 100 99 100 95 99 100 100 100
0 0 0 73 100 100 100 100 100 100 100 100 100 100 100 100 100 100 100 97 97 100 87 98 91 89 9 98 100 59 77 100 100 100 100 100 100 100 100 100 100 100 100
93 32 22 100 100 100 100 100 100 100 100 100 100 100 100 100 100 100 100 99 100 100 100 100 100 100 100 100 100 100 100 100 100 100 92 99 100 100 100 100 100 100 97
100 100 96 100 100 100 100 100 100 100 100 100 100 100 100 100 100 100 100 100 100 100 100 100 88 100 100 100 100 100 100 100 98 92 100 100 100 100 100 100 100 99 68
100 95 100 100 100 100 100 100 100 100 100 100 100 100 100 100 100 100 100 100 100 100 100 100 100 100 93 100 100 100 100 100 100 100 100 100 100 100 98 100 94 98 99
100 99 45 52 100 100 100 100 100 100 100 100 100 100 100 100 100 100 100 100 100 100 100 100 100 100 100 100 100 100 100 100 100 100 100 100 100 100 100 100 100 100 100
100 93 16 5 8 43 37 29 68 100 100 100 100 100 100 100 100 100 100 100 100 100 100 100 100 100 100 100 100 100 100 100 100 100 100 100 100 100 100 100 100 100 100
63 15 5 5 74 100 100 100 100 99 100 100 100 100 100 100 100 100 100 100 100 100 100 100 100 100 100 100 100 100 100 100 100 100 100 100 100 100 100 100 100 100 100
76 82 71 47 49 100 100 100 100 98 100 100 100 100 100 100 100 100 100 100 100 100 100 100 100 100 100 100 100 100 100 100 100 100 100 100 100 100 100 100 100 100 100
100 89 87 81 89 93 100 100 100 99 100 100 100 100 100 100 100 100 100 100 100 100 100 100 100 100 100 100 100 100 100 100 100 100 100 100 100 100 100 100 100 100 100
100 99 97 100 100 100 100 100 100 100 61 92 100 100 100 100 100 100 100 100 100 100 100 100 100 100 100 100 100 100 100 100 100 100 100 100 100 76 88 100 100 100 100
100 100 100 100 100 100 98 100 100 100 87 47 68 93 100 100 100 100 100 100 100 100 100 100 100 100 100 100 100 100 100 100 100 100 100 100 100 100 100 100 100 100 100
100 100 100 100 100 100 100 100 100 100 99 98 78 62 87 100 100 100 100 100 100 100 100 100 100 100 100 100 100 100 100 100 100 100 100 100 100 100 100 100 100 100 100
100 100 100 100 100 100 99 93 100 100 100 100 100 86 75 96 100 100 100 100 100 100 100 100 100 100 100 100 100 100 100 100 100 100 100 100 100 100 100 100 100 100 100
100 100 100 100 100 100 100 100 100 100 100 100 100 91 97 99 93 97 100 100 100 100 100 100 100 100 100 100 100 100 100 100 100 100 100 100 100 100 100 100 100 100 100
100 100 100 100 100 100 100 100 100 100 100 100 100 100 100 100 100 96 100 100 100 100 100 100 100 100 100 100 100 100 100 100 100 100 100 100 100 100 100 100 100 100 100
100 100 100 100 100 100 100 100 100 100 100 100 100 100 100 100 100 100 100 100 100 100 100 100 100 100 100 100 100 100 100 100 100 100 100 100 100 100 100 100 100 100 100
100 100 100 100 100 100 100 96 97 100 100 100 100 100 100 100 100 100 100 100 100 100 100 100 100 100 100 100 100 100 100 100 100 100 100 100 100 100 100 100 100 100 100
100 100 100 100 100 100 100 100 100 100 100 100 100 100 100 100 100 100 100 100 100 100 100 100 100 100 100 100 100 100 100 100 100 100 100 100 100 100 100 100 100 98 97
100 100 100 100 100 100 100 100 100 100 100 100 100 99 100 100 100 100 95 90 100 100 100 100 100 100 100 100 100 100 100 100 100 100 100 100 100 100 100 100 100 91 88